Back to catalog

DELTA 1 DEB

AliveLEO
NORAD 14480·DEBRIS·🇺🇸 United States

Launched Nov 6, 1973 from Vandenberg Space Force Base

Loading…

Next Passes (next 24 hours)

TLE

FreshSource: Space-Track

Epoch: Sep 14, 2026, 11:27 UTC

1 14480U 73086GR  26257.47746977  .00030991  00000-0  10702-1 0  9997
2 14480 102.6262 144.7890 0006165 215.8023 318.3369 14.35689772 72262

Track DELTA 1 DEB in real time with AllMySat

Download on the App Store